Погода в Дукстасе

Поиск расширенной информации на нашем сайте:

Полезная информация:

Новости сайта



02.01.2020
Опубликован Долгосрочный прогноз погоды по городам России и ближнего зарубежья на январь 2020 года.
Карты: Прогноз на январь и февраль 2020 года, Сравнение прогнозируемой аномалии приземной температуры воздуха на январь 2020 года по разным моделям.




Погода в Дукстасе - сегодня

Время (UTC), дата Ветер
(°,м/с) 
Видим.   Явления Облачность Т
(°С)
Тd
(°С)
f(%) Тe
(°С)
Pmin
(гПа)
dP
(гПа)
Po
(мм)
O2
(г/м3)
Тmin Tmax R s Состояние
почвы
15 09.08.20 030 (СВ) 1-3{06}  20000 м    1/0 
+26.9 +14.5 47 +35  1018.4  -1  750  272           
18 09.08.20 330 (СЗ) 2-3{04}  20000 м    ясно 
+21.5 +15.7 70 +31  1018.7  750  277    +27.4       
21 09.08.20 тихо () -0{03}  20000 м    ясно 
+17.2 +14.9 86 +26  1019.4  0.4  750  281           
00 10.08.20 тихо () -2{02}  10 км  дымка  ясно 
+15.6 +14.8 95 +24  1019.5  750  283           
03 10.08.20 310 (СЗ) 1-2{03}  5000 м  дымка  ясно 
+15.7 +15.1 96 +26  1019.3  0.2  750  283           
06 10.08.20 тихо () -2{03}  20000 м    ясно 
+21.6 +17.5 78 +35  1018.9  750  276  +14.7         
09 10.08.20 300 (СЗ) 1-4{04}  20000 м    ясно 1000 м 
+26.4 +16 53 +37  1018.3  -0.3  750  272           
12 10.08.20 300 (СЗ) 3-6{07}  19000 м    ясно 
+27.5 +14.4 45 +35  1017  -1.2  749  271           
15 10.08.20 320 (СЗ) 3-6{08}  20000 м    1/0 
+26.6 +14.4 47 +34  1016.6  -0.5  749  272           
18 10.08.20 330 (СЗ) 3-6{08}  20000 м    ясно 
+21.9 +15 65 +31  1017.2  0.4  749  276    +27.9       
21 10.08.20 330 (СЗ) 2-5{06}  20000 м    ясно 
+18 +12.1 68 +23  1018.7  1.2  750  281           
00 11.08.20 000 (С) 2-5{06}  20000 м    4/4 1000 м 
+16.1 +11.4 74 +20  1019.5  0.6  750  283           
03 11.08.20 360 (С) 2-5{06}  20000 м    1/0 
+13.4 +9.6 78 +15  1020.2  0.5  751  287           
06 11.08.20 350 (С) 3-7{07}  20000 м    ясно 
+16.6 +10.1 65 +18  1020.9  0.9  751  284  +13.3         
09 11.08.20 010 (С) 3-6{09}  18000 м    8/8 1000 м 
+20 +9.5 51 +20  1020.9  0.3  751  280           
12 11.08.20 340 (С) 4-7{07}  20000 м    3/3 1500 м 
+20.8 +9 47 +21  1020.9  751  280           
15 11.08.20 350 (С) 3-5{09}  20000 м    5/0 
+19.5 +8.2 48 +20  1020.6  -0.4  751  281           
18 11.08.20 010 (С) 2-5{07}  20000 м    ясно 
+16.7 +7.6 55 +18  1021.1  0.3  751  284    +21.5       
21 11.08.20 010 (С) 2-4{05}  20000 м    ясно 
+13 +9.3 78 +13  1021.8  0.5  752  287           
00 12.08.20 тихо () -2{04}  20000 м    6/0 
+10.9 +8.7 86 +11  1022.7  0.7  752  290           
03 12.08.20 310 (СЗ) 1-3{04}  20000 м    10/10 1500 м 
+11.7 +9.4 86 +13  1022.5  0.1  752  289           
06 12.08.20 350 (С) 2-4{05}  20000 м    9/9 1500 м 
+14.5 +10 74 +16  1022.4  0.1  752  286  +10.2         
09 12.08.20 020 (С) 4-6{08}  20000 м    9/9 1500 м 
+16.5 +9.4 63 +17  1022.3  752  284           
12 12.08.20 350 (С) 3-5{07}  20000 м    9/9 1500 м 
+17.1 +7.6 54 +18  1022.4  0.1  752  284           
15 12.08.20 350 (С) 2-4{07}  20000 м    9/9 1500 м 
+17.1 +7.9 55 +18  1021.9  -0.4  752  284           
Время (UTC), дата Ветер
(°,м/с) 
Видим.   Явления Облачность Т
(°С)
Тd
(°С)
f(%) Тe
(°С)
Pmin
(гПа)
dP
(гПа)
Po
(мм)
O2
(г/м3)
Тmin Tmax R s Состояние
почвы

Для получения пояснительной информации подведите курсор к названию столбца.

ПОГОДА в Дукстасе - архив

Всё, что Вы хотите узнать о погоде в Дукстасе - удобно и подробно!

Выберите нужную дату (начиная с 1 января 2019* года) и нажмите кнопку "Найти".
Будут отображены архивные сводки погоды по пункту Дукстас, начиная с указанной даты.


Отображать данные в формате CSV (для использования в таблицах Excel)


Внимание! Наш архив погоды предназначен исключительно для личного некоммерческого использования в познавательных целях. Если Вам необходимы официальные справки о состоянии погоды (для производственных, юридических, коммерческих и т.п. целей), обращайтесь в органы Росгидромета.

*Примечание: данная дата относится к архиву по метеостанциям СССР (Россия, СНГ, Балтия).
Архив по метеостанциям Зарубежной Европы и Азии (кроме Китая) хранится 10 дней, по другим регионам земного шара (Китай, Африка, Америка, Австралия, Океания) - 1 день.

Дукстас - район местоположения метеостанции


Название, широта, долгота, высота метеостанции:
Дукстас 55.5°ш. 26.3°д. 168 м над ур. моря [Литва]

Дополнительная информация

В oтличие oт бoльшинства пoгoдных сайтoв мы публикуем пoдрoбную метеoинфoрмацию в детальнoм прoфессиoнальнoм фoрмате.

Характеристики температуры и влажнoсти вoздуха измеряются на высoте 2 м в тени вдали oт зданий и деревьев.
Скoрoсть ветра измеряется на высoте 10 м (на урoвне рoста челoвека скoрoсть ветра ниже в 1.5-2 раза). Если метеoстанция нахoдится в гoрoде или в лесу, тo скoрoсть ветра занижена на 2-4 м/с пo сравнению с oткрытым местoм. Скoрoсть ветра над акватoриями крупных рек и oзёр, а также на вершинах хoлмoв на 2-5 м/с выше, чем в oбычных услoвиях.
Атмoсфернoе давление в разных тoчках местнoсти мoжет значительнo oтличаться oт давления на метеoстанции, в зависимoсти oт услoвий рельефа (при пoдъёме на 10 м давление пoнижается примернo на 1 мм рт.ст.).